This is the latest recevied weather packets stored in our database for station/object N6GPM. If no packets are shown the sender has not sent any weather packets the latest 10 day(s).
| Time | Temp. | Humidity | Pressure | Rain* | Wind** | Luminosity | Snow |
|---|---|---|---|---|---|---|---|
| 1777588744 | 24.44° C | 50% | 1013.9 hPa | 0 mm | - | 407 W/m² | - |
| 1777588440 | 23.89° C | 52% | 1013.7 hPa | 0 mm | - | 484 W/m² | - |
| 1777588135 | 23.33° C | 53% | 1013.9 hPa | 0 mm | - | 592 W/m² | - |
| 1777587832 | 23.89° C | 51% | 1014 hPa | 0 mm | - | 609 W/m² | - |
| 1777587531 | 23.33° C | 52% | 1014 hPa | 0 mm | - | 607 W/m² | - |
| 1777587227 | 23.89° C | 50% | 1014 hPa | 0 mm | - | 587 W/m² | - |
| 1777586923 | 23.33° C | 51% | 1014 hPa | 0 mm | - | 590 W/m² | - |
| 1777586619 | 23.89° C | 51% | 1014.1 hPa | 0 mm | - | 622 W/m² | - |
| 1777586315 | 23.33° C | 49% | 1014 hPa | 0 mm | - | 636 W/m² | - |
| 1777586013 | 23.33° C | 49% | 1013.9 hPa | 0 mm | - | 611 W/m² | - |
| 1777585708 | 23.89° C | 49% | 1014.1 hPa | 0 mm | - | 645 W/m² | - |
| 1777585407 | 23.33° C | 49% | 1014.2 hPa | 0 mm | - | 676 W/m² | - |
| 1777585102 | 22.78° C | 50% | 1014 hPa | 0 mm | - | 682 W/m² | - |
| 1777584799 | 23.33° C | 50% | 1014.2 hPa | 0 mm | - | 668 W/m² | - |
| 1777584497 | 23.33° C | 50% | 1014.2 hPa | 0 mm | - | 673 W/m² | - |
| 1777584193 | 23.33° C | 50% | 1014.2 hPa | 0 mm | - | 665 W/m² | - |
| 1777583892 | 23.33° C | 52% | 1014.2 hPa | 0 mm | - | 667 W/m² | - |
| 1777583588 | 23.33° C | 50% | 1014.3 hPa | 0 mm | - | 688 W/m² | - |
| 1777583287 | 23.33° C | 50% | 1014.2 hPa | 0 mm | - | 696 W/m² | - |
| 1777582982 | 22.78° C | 50% | 1014.1 hPa | 0 mm | - | 682 W/m² | - |
| 1777582680 | 23.33° C | 49% | 1014.3 hPa | 0 mm | - | 703 W/m² | - |
| 1777582375 | 22.78° C | 50% | 1014.4 hPa | 0 mm | - | 697 W/m² | - |
| 1777582073 | 22.22° C | 51% | 1014.4 hPa | 0 mm | - | 672 W/m² | - |
| 1777581768 | 22.22° C | 50% | 1014.4 hPa | 0 mm | - | 662 W/m² | - |
| 1777581467 | 22.22° C | 49% | 1014.7 hPa | 0 mm | - | 641 W/m² | - |
* Rain latest hour (hover to see other rain measurements)
** Current wind speed in m/s (hover to see current wind gust speed)